Location: Unspecified
(0.0000°N, 0.0000°E)
Time: 04:51:37
(UTC+00:00)

DMSP F15 (USA 147) - Pass Details

Date: 21 May 2026
Orbit: 826 x 841 km, 99.0° (Epoch: 11 June)

Event Time Altitude Azimuth Distance (km) Brightness Sun altitude
Exits shadow 19:32:30 39° 70° (ENE) 1,220 5.6 -22.4°
Drops below altitude 10° 19:37:13 10° 9° (N) 2,426 7.7 -23.5°
Sets 19:39:41 0° 2° (N) 3,354 8.6 -24.0°
